User: anonymous   Login
Location: Unspecified
(0.0000°N, 0.0000°E)
Time: 17:41:03
(UTC+00:00)
Language:

OV3-3 - Orbit

View from above orbital plane
View from above orbital plane
View from above satellite
View from above satellite

Ground track
Ground track

The orbit data is extracted from the following two-line orbital elements,

1  2389U 66070A   18319.94464146  .00002326  00000-0  12625-3 0  9993
2  2389  81.3847 110.8611 1241116 118.7934 254.3485 12.92459346236515
Epoch (UTC): 15 November 2018 22:40:17
Eccentricity: 0.1241116
inclination: 81.3847°
perigee height: 340 km
apogee height: 2243 km
right ascension of ascending node: 110.8611°
argument of perigee: 118.7934°
revolutions per day: 12.92459346
mean anomaly at epoch: 254.3485°
orbit number at epoch: 23651

The dashed part of the orbit path shows where the satellite is in the earth's shadow,  

DLR